Tracking 25686 objects as of 25-May-2022
HD Live streaming from Space Station
objects crossing your sky now

OBJECT C

Track OBJECT C now!
10-day predictions


NORAD ID: 49317
Int'l Code: 2021-091C
Perigee: 507.0 km
Apogee: 527.6 km
Inclination: 97.5 °
Period: 94.8 minutes
Semi major axis: 6888 km
RCS: Unknown
Launch date: October 14, 2021
Source: People's Republic of China (PRC)
Launch site: Taiyaun Space Center, China (TSC)
aabbcc
Your satellite tracking list
Your tracking list is empty




NASA's NSSDC Master Catalog

Two Line Element Set (TLE):
1 49317U 21091C   22145.52148100  .00004870  00000-0  23828-3 0  9997
2 49317  97.4621 333.1815 0014950 203.3382 241.5704 15.18569027 33833
Source of the keplerian elements: AFSPC